Cahokia, IL

2:51 PM CST on December 05, 2019 (GMT -0600)
Saint Louis Downtown

Weather History for KCPS - November, 2019

Change the Weather History Date:

Friday, November 15, 2019

  Actual Average Record
Temperature  
Mean Temperature 34 °F -  
Max Temperature 48 °F 55 °F 81 °F (1955)
Min Temperature 19 °F 37 °F 19 °F (2014)
Degree Days  
Heating Degree Days 32    
Moisture  
Dew Point 22 °F    
Average Humidity 74    
Maximum Humidity 96    
Minimum Humidity 37    
Precipitation  
Precipitation 0.00 in - - ()
Sea Level Pressure  
Sea Level Pressure 30.41 in    
Wind  
Wind Speed 1 mph (NNE)    
Max Wind Speed 6 mph    
Max Gust Speed -    
Visibility 8 miles    
Events      
Averages and records for this station are not official NWS values.
T = Trace of Precipitation, MM = Missing Value Source: NWS Daily Summary

Daily Weather History Graph

Daily Weather History Graph

Search for Another Location

Airport or City:

Astronomy

Nov. 15, 2019 Rise Set
Actual Time 6:42 AM CST 4:47 PM CST
Civil Twilight 6:13 AM CST 5:15 PM CST
Nautical Twilight 5:41 AM CST 5:48 PM CST
Astronomical Twilight 5:10 AM CST 6:19 PM CST
Moon 7:24 PM CST (11/15) 9:37 AM CST (11/15)
Length of Visible Light 11h 02m
Length of Day
10h 05m
Waning Gibbous, 90% of the Moon is Illuminated
Nov 15
Waning Gibbous
Nov 19
Last Quarter
Nov 26
New
Dec 4
First Quarter
Dec 11
Full

Hourly Weather History & Observations

Time (CST) Temp. Windchill Dew Point Humidity Pressure Visibility Wind Dir Wind Speed Gust Speed Precip Events Conditions
12:15 AM 23.0 °F - 19.9 °F 88% 30.39 in 5.0 mi Calm Calm - N/A   Clear
12:53 AM 21.9 °F - 19.0 °F 89% 30.41 in 2.5 mi Calm Calm - N/A   Clear
1:01 AM 21.9 °F - 18.0 °F 85% 30.39 in 4.0 mi Calm Calm - N/A   Clear
1:53 AM 21.0 °F - 18.0 °F 88% 30.41 in 7.0 mi Calm Calm - N/A   Clear
2:53 AM 19.9 °F - 17.1 °F 89% 30.41 in 4.0 mi Calm Calm - N/A   Clear
3:53 AM 19.9 °F - 16.0 °F 85% 30.42 in 5.0 mi Calm Calm - N/A   Clear
4:53 AM 19.9 °F - 17.1 °F 89% 30.43 in 7.0 mi Calm Calm - N/A   Clear
5:53 AM 19.0 °F - 16.0 °F 88% 30.45 in 6.0 mi Calm Calm - N/A   Clear
6:53 AM 19.0 °F - 16.0 °F 88% 30.44 in 5.0 mi Calm Calm - N/A   Clear
7:53 AM 21.9 °F - 21.0 °F 96% 30.45 in 6.0 mi Calm Calm - N/A   Clear
8:53 AM 30.0 °F - 27.0 °F 88% 30.45 in 6.0 mi Calm Calm - N/A   Clear
9:53 AM 35.1 °F - 28.0 °F 76% 30.45 in 9.0 mi Calm Calm - N/A   Clear
10:53 AM 37.9 °F - 27.0 °F 65% 30.45 in 10.0 mi Calm Calm - N/A   Clear
11:53 AM 42.1 °F 40.2 °F 25.0 °F 51% 30.42 in 10.0 mi Variable 3.5 mph - N/A   Clear
12:53 PM 45.0 °F 43.5 °F 25.0 °F 46% 30.40 in 10.0 mi ENE 3.5 mph - N/A   Clear
1:53 PM 46.0 °F 43.1 °F 24.1 °F 42% 30.39 in 10.0 mi North 5.8 mph - N/A   Clear
2:53 PM 48.0 °F - 23.0 °F 37% 30.38 in 10.0 mi Variable 4.6 mph - N/A   Clear
3:53 PM 46.0 °F 43.1 °F 24.1 °F 42% 30.38 in 10.0 mi North 5.8 mph - N/A   Clear
4:53 PM 42.1 °F 40.2 °F 25.0 °F 51% 30.37 in 10.0 mi ENE 3.5 mph - N/A   Clear
5:53 PM 37.0 °F - 25.0 °F 62% 30.37 in 10.0 mi Calm Calm - N/A   Clear
6:53 PM 34.0 °F - 25.0 °F 70% 30.38 in 10.0 mi Calm Calm - N/A   Clear
7:53 PM 30.9 °F - 24.1 °F 76% 30.38 in 10.0 mi Calm Calm - N/A   Clear
8:53 PM 28.9 °F - 23.0 °F 78% 30.38 in 10.0 mi Calm Calm - N/A   Clear
9:53 PM 28.9 °F - 25.0 °F 85% 30.39 in 10.0 mi Calm Calm - N/A   Clear
10:53 PM 28.0 °F - 23.0 °F 81% 30.38 in 10.0 mi Calm Calm - N/A   Clear
11:53 PM 26.1 °F - 23.0 °F 88% 30.38 in 10.0 mi Calm Calm - N/A   Clear